Terug naar catalogus

USA 371

ActiefMilitairVLEO
NORAD 59831·PAYLOAD·🇺🇸 United States

Gelanceerd May 22, 2024 vanaf Vandenberg Space Force Base

Loading…

Volgende Passages (komende 24 uur)

TLE

VerouderdSource: Mike McCants

Epoch: Aug 25, 2026, 20:13 UTC

1 59831U 24096T   26237.84295130 0.00000000  00000-0  00000-0 0    02
2 59831  70.0232 137.0379 0003004 127.9261 232.0738 14.96713072    02

Volg USA 371 in realtime met AllMySat

Download on the App Store